FENGYUN 1C DEB, 30837

Orbit data source: Space-Track

FENGYUN 1C DEB, 30837 is space debris in SSO originally from a launch on Mon, 10 May 1999 UTC launched from the Taiyaun Space Center, China (TSC). Fengyun 1C debris stems from the Chinese weather satellite Fengyun-1C, which was intentionally destroyed by a Chinese anti-satellite missile in 2007. This event dramatically increased the amount of space debris, with thousands of trackable fragments posing hazards to satellites and human spaceflight. The Fengyun 1C debris cloud has become a focal point in discussions about space sustainability and the need for international regulations to prevent the creation of new debris.

Loading next visibility...
Identifier
30837, 1999-025AVX
Orbit
SSO
Country
Flag of CNCN / PRC
Related business
Manufacturer
Unknown
Mission
Spacecraft
Bus & Motor
Unknown
Mass
Unknown
Launch date (UTC)
1999-05-10 (27 years ago)
Launch vehicle
Unknown
Launch site
Taiyaun Space Center, China (TSC)
Object type
Payload
Rocket body
Debris
Shape & HBR
Unknown shape, 0.1 m
Radar Cross Section
Medium (>0.1 m² and <1 m²)

Expand to show TLE details & history
Last TLE update: 21 hours ago

TLE from 21 hours ago
0 FENGYUN 1C DEB
1 30837U 99025AVX 26207.41915470  .00000474  00000-0  26713-3 0  9991
2 30837  98.6972 192.6751 0031427 208.1099 315.0033 14.14795341    16
Epoch: 2026-07-26T10:03Z
TLE epoch observation values (Epoch: 2026-07-26T10:03:34.966Z)
Latitude
16.92572°
Longitude
-79.68393°
Altitude
829.279 km
Speed
7.448 km/s
True Right ascension
01h 01m 18s
True Declination
16° 49' 52"
Sunlit
Object was in daylight at epoch
Visualization orbit readout
Latitude
Unknown
Longitude
Unknown
Altitude
Unknown
Speed
Unknown
Apparent Right ascension
Unknown
Apparent Declination
Unknown
Sunlit
N/A
Visualization observer readout
Local Sidereal Time
20:05:24
Azimuth
Unknown
Elevation
Unknown
Doppler factor
Unknown
Orbital elements
Apogee altitude
862.858 km
Perigee altitude
817.488 km
Semi-major axis
7,218.31 km
Eccentricity
0.00314
Inclination
98.6972°
RAAN
192.6751°
Arg. of periapsis
208.1099°
True anomaly
314.74796°
Mean anomaly
315.0033°
Eccentric anomaly
314.8757°
Mean motion
3.53908 °/min
Orbital period
101.72 mins
BSTAR
0.00026713
Loading maneuver chart data...
Computing Atmospheric mass density...

Documentation

Showing up to 5 results
|